Simultaneous Nadir Overpasses (SNOs) Predictions

Prediction of SNOs over PacNW region [( 10.00, 139.50) to ( 22.70, 165.60)] between NOAA-19 and NPP Satellites:

Table of predicted SNOs over PacNW region for the next 30.0 days since TLE Epoch: 8/26/2013
Index Date (NOAA-19) Time (NOAA-19) NOAA-19 Lat,Lon Date (NPP) Time (NPP) NPP Lat,Lon Distance(km) Time Diff (sec)
1 08/28/2013 02:31:17 13.15, 165.23 08/28/2013 02:34:01 12.16, 160.92 479.98 164
2 08/28/2013 15:08:05 17.43, 160.92 08/28/2013 15:06:35 18.14, 157.55 365.79 90
3 09/09/2013 16:18:58 22.59, 144.20 09/09/2013 16:21:23 23.59, 139.84 458.94 145
4 09/10/2013 03:35:25 22.65, 147.64 09/10/2013 03:34:08 21.98, 144.28 353.84 77
5 09/22/2013 03:02:34 11.69, 157.81 09/22/2013 03:05:43 10.62, 153.31 505.15 189
6 09/22/2013 15:39:12 19.21, 153.62 09/22/2013 15:38:13 19.96, 150.03 385.79 59
7 09/23/2013<
